Theta_e
318 318 318 318 319 318 318 318 318 319 319 319 318 319 319 318 318 320 314 316 318 328 327 318 317 316 316 314 316 316 309 307 309 311 314 317 318 330 331 329 335 337 335 340 347
318 318 318 318 318 318 318 318 318 318 318 319 318 318 317 318 319 316 319 326 331 332 318 314 312 314 312 311 313 310 307 308 313 314 313 315 312 314 318 321 328 333 339 343 346
317 317 317 317 318 317 318 318 318 318 318 319 318 317 317 320 317 318 330 334 336 329 318 315 314 312 309 311 310 310 306 311 313 314 315 314 312 314 313 315 322 327 336 341 343
316 317 317 317 317 317 317 317 318 318 318 318 317 316 318 321 308 321 333 336 333 320 315 313 312 308 307 306 310 306 309 310 312 314 313 312 313 311 314 317 327 330 337 342 342
316 316 316 317 316 317 317 317 317 317 317 317 317 317 319 313 312 332 337 334 323 315 314 313 310 309 306 307 308 306 307 309 311 311 312 313 310 311 313 318 326 332 338 340 341
316 317 316 316 316 316 316 316 316 316 316 317 317 317 317 309 321 327 326 322 317 315 314 314 312 312 309 308 307 308 308 309 310 310 311 309 310 314 318 324 325 333 335 340 341
316 316 316 316 316 316 316 316 316 316 316 317 318 320 313 311 325 326 321 318 317 316 312 315 315 312 311 307 310 309 306 308 309 310 310 311 308 311 319 322 324 331 336 338 341
316 316 316 316 315 315 316 315 315 316 317 319 321 322 310 319 329 322 322 321 321 316 316 318 318 313 311 311 309 306 307 304 308 311 309 309 306 312 321 323 322 326 332 336 340
315 315 315 315 315 315 315 314 315 317 320 321 324 321 310 318 319 324 324 320 321 320 319 315 316 311 309 306 304 306 304 304 306 313 310 309 307 319 326 323 322 329 333 334 338
315 314 314 314 314 314 314 315 319 320 323 324 323 316 317 313 317 322 325 322 316 315 313 312 311 308 307 306 301 302 303 304 304 310 314 313 314 320 324 322 322 326 329 332 335
315 314 314 314 314 313 314 321 316 315 318 312 312 312 315 319 318 318 321 319 317 314 310 312 308 307 307 308 307 306 304 303 306 312 314 313 315 319 323 324 325 328 327 330 334
313 313 313 313 313 312 318 316 315 314 308 312 312 313 316 318 310 315 320 313 312 309 311 310 307 310 309 308 306 305 304 305 310 313 314 313 313 318 320 322 326 328 330 331 331
312 312 313 313 312 314 318 317 321 318 310 309 312 313 314 318 310 311 316 313 311 308 309 308 309 310 308 307 306 305 304 304 305 309 309 311 311 314 318 321 323 328 330 332 333
312 312 312 311 311 318 318 320 321 318 306 305 309 313 317 316 309 315 316 314 311 307 309 309 312 308 307 306 308 304 308 306 305 305 302 310 303 311 314 316 320 324 329 330 333
311 312 311 309 317 315 320 320 320 318 294 307 310 320 317 311 311 311 317 314 308 308 310 308 309 308 306 307 308 306 308 307 306 306 304 305 302 309 314 312 317 322 328 330 334
311 311 310 313 318 318 319 321 319 303 295 305 309 309 309 309 309 312 312 315 313 309 311 310 315 313 311 310 310 310 308 308 308 305 300 304 303 304 309 312 316 321 327 330 333
310 309 309 315 314 317 320 318 302 297 307 303 304 308 308 306 307 309 308 307 305 302 304 307 308 312 313 309 311 309 307 301 299 301 298 306 302 308 312 315 317 318 325 330 333
308 307 310 316 320 319 320 309 296 299 304 307 306 307 304 307 307 307 307 305 308 308 304 302 300 308 311 309 308 307 307 301 292 298 299 305 300 307 315 317 319 321 327 331 333
306 318 319 324 322 321 313 299 299 302 307 305 305 304 304 306 306 306 306 305 308 310 304 302 301 310 310 311 311 307 305 310 303 304 299 303 305 312 314 314 316 317 324 326 330
312 314 321 321 322 319 308 298 301 307 308 307 303 305 302 304 304 305 306 309 308 311 313 308 301 307 308 310 310 309 311 303 304 294 293 299 299 304 309 310 313 315 320 325 327
314 311 319 323 322 312 301 301 303 309 309 306 305 304 305 304 305 304 306 309 310 310 313 311 308 305 306 305 304 305 304 305 305 302 296 295 300 310 309 312 312 314 320 324 325
313 305 319 323 309 311 304 304 302 306 311 308 308 307 307 307 305 305 306 309 310 312 308 312 310 303 303 307 307 308 305 304 299 297 301 299 298 312 314 315 317 316 319 324 327
309 310 322 320 304 305 308 305 307 306 308 307 307 309 310 307 304 307 308 309 310 311 310 312 308 302 301 305 307 304 306 307 305 306 299 296 299 312 314 313 314 314 316 319 326
311 303 312 315 314 309 306 305 304 308 307 308 308 310 309 306 310 307 307 308 310 310 309 313 310 305 299 302 305 302 303 305 305 300 299 299 302 307 310 311 313 312 313 318 326
311 307 308 305 308 309 309 306 303 303 307 308 308 308 308 305 306 305 309 308 309 307 310 313 305 306 305 304 303 303 303 303 302 303 299 301 301 305 308 310 311 313 314 316 323
307 308 309 309 306 308 303 306 303 304 305 305 306 307 309 307 307 305 308 309 308 310 310 311 305 306 302 304 304 301 303 303 303 303 303 303 303 310 312 313 313 315 316 317 323
314 312 309 300 306 305 306 306 304 305 305 307 307 307 306 307 310 312 314 314 313 310 310 309 306 304 298 303 302 298 303 304 304 306 306 301 307 310 309 310 313 317 318 320 324
Wind_Speed
14 14 14 14 14 14 14 14 13 12 12 12 11 11 11 12 14 7 3 5 3 11 8 13 10 9 8 6 5 4 7 8 6 6 7 4 2 4 5 3 7 5 1 6 20
14 15 15 15 15 14 14 13 13 12 12 10 10 10 10 9 9 6 7 6 4 12 11 12 12 12 7 6 6 9 7 5 5 3 2 7 5 6 5 5 8 8 6 13 20
16 16 16 16 15 14 14 14 13 12 11 10 9 9 9 11 8 7 8 8 8 10 5 6 9 10 7 7 6 6 6 4 6 4 9 10 9 6 8 9 6 8 12 16 20
16 17 17 16 15 15 15 14 13 12 10 9 7 8 9 8 2 6 10 8 4 8 10 10 11 9 7 8 7 7 6 7 5 5 8 10 8 9 10 9 3 1 11 18 19
16 16 17 16 16 15 14 14 12 11 9 7 6 7 8 8 8 8 10 9 10 10 10 7 8 6 5 3 7 9 4 5 8 8 8 11 12 12 15 6 1 4 11 16 17
15 16 18 17 16 15 14 13 11 10 7 5 5 5 7 5 4 12 10 11 8 10 7 5 1 2 3 2 7 1 5 7 6 8 8 11 9 4 7 10 6 6 10 12 13
16 16 17 17 17 16 14 12 10 9 5 3 3 6 6 8 3 9 10 5 8 5 5 1 2 7 1 5 1 6 10 8 8 3 5 5 11 10 7 8 7 8 7 6 9
17 17 18 18 17 16 14 13 12 7 3 3 5 5 3 4 7 9 8 7 6 5 3 1 3 3 5 0 7 9 7 11 6 3 3 7 13 8 9 9 7 5 3 4 7
17 17 17 18 17 16 13 13 1 4 3 6 6 6 8 5 6 10 9 5 8 6 5 2 5 3 6 11 8 8 7 8 9 5 2 6 9 14 10 7 4 4 2 4 5
17 18 17 17 17 14 11 7 3 8 6 4 4 6 6 5 7 8 9 5 4 8 7 7 7 7 7 11 3 7 8 8 4 5 3 1 7 7 6 5 3 1 2 5 8
17 19 18 18 16 14 6 6 7 6 7 5 3 4 8 6 6 8 8 9 7 7 5 5 11 3 7 5 4 2 1 2 5 4 3 7 10 12 12 14 13 11 5 1 7
19 20 20 19 18 8 6 4 5 6 4 4 4 4 3 2 10 10 8 9 7 6 5 8 6 5 0 3 2 3 3 8 10 6 1 7 12 12 13 13 15 15 12 9 5
18 20 20 19 15 5 4 3 7 4 6 5 3 4 5 9 7 13 11 4 5 5 2 7 8 1 5 7 7 3 3 5 3 5 3 5 10 9 8 11 13 14 14 14 11
19 19 19 24 5 4 3 3 5 5 7 8 9 6 7 5 6 2 7 3 5 3 3 5 3 5 7 6 8 6 2 2 3 9 2 4 3 9 5 9 11 13 14 15 14
19 19 18 10 9 5 6 7 3 5 5 10 8 6 5 6 15 8 5 5 4 4 7 8 3 5 4 7 3 9 2 4 4 5 7 7 11 12 3 8 11 12 12 12 12
20 18 18 4 5 6 7 5 6 7 4 8 8 10 12 8 5 8 8 4 2 3 1 6 2 4 6 5 3 0 6 7 8 5 9 6 9 7 8 7 8 9 10 8 9
22 21 10 3 3 6 7 5 5 6 4 9 11 11 14 12 10 12 11 11 7 9 10 5 4 4 3 7 6 7 8 7 4 3 6 3 9 11 8 6 7 7 8 8 7
26 23 7 5 5 7 4 6 7 2 6 3 5 10 12 12 9 9 10 9 5 7 7 8 10 1 4 6 9 2 6 8 4 2 5 6 3 9 6 4 3 4 6 7 5
28 2 4 2 5 4 7 8 2 3 3 5 8 14 9 9 4 9 10 6 5 7 4 6 5 6 5 5 6 6 5 8 8 5 8 5 5 9 7 8 5 4 3 4 4
7 5 1 2 4 6 7 5 2 1 2 4 11 7 14 13 11 8 11 2 6 5 4 2 3 4 5 4 3 6 4 6 7 5 4 6 4 1 10 7 8 7 5 4 3
5 5 5 4 5 6 8 4 3 2 3 3 4 6 8 8 12 9 8 5 3 4 7 4 6 8 4 4 6 4 8 3 5 6 10 9 2 6 2 3 5 6 6 4 3
5 5 4 4 7 3 8 3 1 3 4 4 3 1 7 6 9 9 9 2 0 3 6 3 5 8 2 3 3 6 4 4 6 3 4 8 12 6 2 5 5 3 3 6 2
5 3 3 4 6 7 4 5 2 4 3 3 5 2 2 5 4 5 5 4 2 3 4 5 5 8 7 7 7 7 5 4 4 5 11 11 5 6 7 5 3 3 5 4 4
5 5 4 5 2 6 7 6 7 2 2 2 1 3 6 6 1 7 7 3 2 3 3 2 4 10 12 10 5 6 9 9 9 8 12 11 15 9 11 10 11 9 7 8 8
3 2 5 6 8 5 4 1 7 6 2 2 4 7 8 6 6 6 5 8 5 6 3 4 8 6 10 8 8 12 15 14 15 16 16 15 16 11 12 13 12 12 12 10 9
5 3 4 2 2 7 5 7 4 5 2 5 5 4 4 6 5 6 6 5 6 5 4 3 7 8 13 12 12 16 17 17 18 18 18 17 19 15 11 8 10 9 9 9 9
2 1 5 4 6 7 8 6 5 3 3 2 1 4 6 6 5 6 5 5 3 3 6 5 6 7 13 7 9 13 20 20 19 18 15 17 15 7 7 8 9 7 6 8 8
Wind_Direction
337 336 334 333 330 327 322 321 320 321 317 318 323 326 326 319 288 215 235 59 134 158 233 149 174 170 199 167 219 252 239 211 155 204 109 91 332 121 32 224 216 175 320 86 146
338 336 334 332 332 323 320 318 319 319 313 317 320 324 320 314 272 224 82 133 139 179 173 175 172 179 178 179 187 233 250 181 37 352 311 329 334 354 277 201 210 191 110 134 154
339 334 334 331 326 321 324 322 323 318 314 316 318 318 306 293 253 78 112 129 167 207 221 221 173 194 187 192 175 180 250 163 214 264 306 308 301 359 280 276 234 207 158 159 166
338 335 333 328 322 329 327 324 320 312 310 311 319 311 301 255 114 88 158 173 189 229 172 164 179 196 195 200 175 227 236 250 257 271 272 284 331 293 271 288 14 209 164 170 177
335 332 328 324 333 328 326 322 313 306 307 311 315 298 266 212 82 105 144 166 185 188 172 177 185 183 180 154 184 236 194 226 241 259 263 284 279 294 290 296 143 246 164 180 187
332 331 329 334 329 328 324 315 303 298 304 306 297 284 252 158 90 143 158 170 192 198 176 212 117 285 116 166 248 147 281 259 249 254 244 253 261 273 94 351 180 200 194 188 190
330 333 325 330 331 328 324 308 292 289 286 286 269 267 256 77 130 158 173 197 177 202 189 205 315 250 164 168 247 266 267 204 212 244 251 281 246 231 350 315 252 212 197 182 188
332 329 328 334 329 322 322 308 288 264 249 230 230 259 71 111 127 181 187 163 194 214 277 253 265 284 264 68 225 250 240 178 107 335 110 226 243 104 349 320 262 227 146 200 184
330 329 330 327 324 325 322 317 331 184 163 160 222 269 118 128 206 196 199 167 170 186 197 196 246 277 197 230 196 204 134 112 131 26 178 242 287 14 342 315 291 45 47 178 171
331 327 326 325 326 323 309 284 132 174 178 223 262 230 170 146 136 158 185 214 178 157 165 214 215 211 194 220 120 123 153 147 66 69 81 55 30 19 26 15 40 73 123 193 187
335 328 328 329 327 318 257 207 205 175 210 309 34 316 129 114 170 183 180 190 196 217 193 197 236 93 65 24 47 72 138 108 94 127 18 55 55 56 61 55 51 43 19 256 211
337 327 328 329 328 325 253 302 40 354 272 214 253 264 223 261 150 159 194 207 206 163 191 212 95 77 38 185 192 203 190 109 94 98 278 96 88 74 58 51 47 42 29 13 318
332 326 328 328 329 236 294 15 326 237 255 146 188 206 167 209 149 168 205 184 207 187 200 35 65 94 191 160 195 166 356 127 23 163 176 241 129 107 75 68 51 47 39 34 22
329 325 329 326 284 351 202 340 310 213 238 134 182 151 170 210 147 131 209 236 192 143 187 61 93 169 180 126 296 145 79 282 229 240 167 229 135 125 81 68 51 41 35 36 40
323 326 327 324 317 249 29 330 206 226 196 148 139 106 169 224 131 164 181 206 184 139 253 89 98 168 185 47 297 53 309 299 279 271 279 121 267 113 116 54 45 37 37 38 44
322 325 325 192 241 284 310 289 230 229 145 155 147 178 175 174 157 136 181 221 333 225 284 95 96 16 39 98 7 81 226 225 242 250 214 78 292 119 85 41 41 44 40 40 40
320 317 296 294 345 331 302 231 229 262 143 157 174 184 181 163 145 170 177 193 205 184 188 176 131 102 346 216 174 220 245 247 226 201 58 93 265 65 95 76 37 34 41 44 41
321 314 166 264 299 308 250 229 240 101 179 130 193 182 186 162 158 171 184 169 209 258 159 212 164 214 8 3 335 322 320 317 275 249 74 151 236 106 108 113 84 78 62 46 52
312 256 237 190 256 233 239 223 244 178 90 190 174 184 171 177 210 193 210 203 150 209 263 194 117 121 74 41 316 123 249 27 285 193 257 89 135 166 174 181 181 138 116 86 76
314 290 134 48 159 222 229 265 227 135 318 216 211 231 186 182 197 214 184 152 172 224 268 148 209 200 128 229 114 332 34 231 199 280 274 151 270 292 175 204 179 182 149 118 115
256 257 69 222 237 210 226 212 222 197 273 250 207 185 214 178 215 202 182 125 213 165 217 203 259 146 195 218 357 194 208 234 307 302 301 288 261 85 192 246 228 205 140 135 129
291 231 61 221 209 215 224 195 29 211 205 235 264 223 189 182 186 201 182 36 53 202 207 149 248 247 350 8 282 282 306 276 299 269 239 302 288 113 158 213 222 279 215 131 162
301 302 116 239 223 204 155 194 221 215 212 225 206 278 211 155 157 164 143 97 76 201 192 173 208 217 198 181 184 225 190 264 272 277 267 277 283 130 127 163 133 310 312 222 199
275 216 154 210 310 294 197 194 183 140 236 276 247 207 177 169 153 165 145 108 92 104 43 260 249 261 284 358 347 197 219 229 242 269 281 254 273 186 194 237 264 287 283 252 201
243 94 353 185 192 218 230 203 199 174 223 239 193 235 204 196 189 179 150 148 152 138 162 254 251 245 266 284 268 272 271 262 233 257 260 274 278 267 280 301 311 302 282 243 201
293 272 181 122 213 210 172 206 221 153 283 173 249 165 201 224 240 209 191 201 199 161 194 185 263 264 269 260 265 266 261 258 255 253 259 260 268 281 308 307 280 291 274 229 198
97 255 284 129 184 211 204 191 184 199 111 36 346 200 180 76 51 49 49 64 51 258 198 231 262 250 268 288 286 265 252 250 257 256 249 261 272 359 294 279 300 311 266 220 180